Time,TemperatureF,DewpointF,PressureIn,WindDirection,WindDirectionDegrees,WindSpeedMPH,WindSpeedGustMPH,Humidity,HourlyPrecipIn,Conditions,Clouds,dailyrainin,SoftwareType,DateUTC
2013-05-25 19:43:00,44.1,44.1,0.00,WNW,292,8.1,8.1,100,0.00,OVC,OVC,0.01,WeatherDisplay:10.37,2013-05-25 23:43:00,
2013-05-25 19:44:00,44.2,44.2,0.00,West,281,8.1,8.1,100,0.00,OVC,OVC,0.01,WeatherDisplay:10.37,2013-05-25 23:44:00,
2013-05-25 19:45:00,44.1,44.1,0.00,West,281,8.1,8.1,100,0.01,RA,RA,0.01,WeatherDisplay:10.37,2013-05-25 23:45:00,
2013-05-25 19:51:00,44.0,44.0,0.00,WNW,295,5.8,5.8,100,0.01,RA,RA,0.01,WeatherDisplay:10.37,2013-05-25 23:51:00,
2013-05-25 19:56:00,44.0,44.0,0.00,NW,304,9.2,9.2,100,0.01,OVC,OVC,0.01,WeatherDisplay:10.37,2013-05-25 23:56:00,
2013-05-25 20:01:00,43.9,43.9,0.00,WSW,244,8.1,8.1,100,0.01,BKN,BKN,0.01,WeatherDisplay:10.37,2013-05-26 00:01:00,
2013-05-25 20:06:00,43.8,43.8,0.00,WSW,246,5.8,5.8,100,0.01,BKN,BKN,0.01,WeatherDisplay:10.37,2013-05-26 00:06:00,
2013-05-25 20:11:00,43.6,43.6,0.00,WNW,295,11.5,11.5,100,0.01,BKN,BKN,0.01,WeatherDisplay:10.37,2013-05-26 00:11:00,
2013-05-25 20:16:00,43.5,43.5,0.00,NW,306,8.1,8.1,100,0.01,BKN,BKN,0.01,WeatherDisplay:10.37,2013-05-26 00:16:00,
2013-05-25 20:21:00,43.5,43.5,0.00,NW,315,11.5,11.5,100,0.02,RA,RA,0.02,WeatherDisplay:10.37,2013-05-26 00:21:00,
2013-05-25 20:27:00,43.4,43.4,0.00,WNW,298,9.4,9.4,100,0.02,BKN,BKN,0.02,WeatherDisplay:10.37,2013-05-26 00:27:00,
2013-05-25 20:32:00,43.3,43.3,0.00,NW,309,9.2,9.2,100,0.02,BKN,BKN,0.02,WeatherDisplay:10.37,2013-05-26 00:32:00,
2013-05-25 20:37:00,43.4,43.4,0.00,West,275,9.2,9.2,100,0.02,BKN,BKN,0.02,WeatherDisplay:10.37,2013-05-26 00:37:00,
2013-05-25 20:42:00,43.5,43.5,0.00,WNW,295,5.8,5.8,100,0.02,BKN,BKN,0.02,WeatherDisplay:10.37,2013-05-26 00:42:00,
2013-05-25 20:47:00,43.1,43.1,0.00,WNW,287,5.8,5.8,100,0.01,BKN,BKN,0.02,WeatherDisplay:10.37,2013-05-26 00:47:00,
2013-05-25 20:53:00,42.7,42.7,0.00,West,265,9.2,9.2,100,0.01,BKN,BKN,0.02,WeatherDisplay:10.37,2013-05-26 00:53:00,
2013-05-25 20:58:00,43.1,43.1,0.00,WSW,239,9.2,9.2,100,0.01,BKN,BKN,0.02,WeatherDisplay:10.37,2013-05-26 00:58:00,
2013-05-25 21:03:00,43.0,43.0,0.00,WSW,256,6.9,6.9,100,0.01,BKN,BKN,0.02,WeatherDisplay:10.37,2013-05-26 01:03:00,
2013-05-25 21:08:00,43.1,43.1,0.00,WSW,254,9.2,9.2,100,0.01,BKN,BKN,0.02,WeatherDisplay:10.37,2013-05-26 01:08:00,
2013-05-25 21:13:00,43.0,43.0,0.00,West,260,9.2,9.2,100,0.01,BKN,BKN,0.02,WeatherDisplay:10.37,2013-05-26 01:13:00,
2013-05-25 21:18:00,42.9,42.9,0.00,WNW,284,6.9,6.9,100,0.00,BKN,BKN,0.02,WeatherDisplay:10.37,2013-05-26 01:18:00,
2013-05-25 21:23:00,42.9,42.9,0.00,West,260,7.3,7.3,100,0.00,BKN,BKN,0.02,WeatherDisplay:10.37,2013-05-26 01:23:00,
2013-05-25 21:29:00,42.9,42.9,0.00,NW,305,5.8,6.4,100,0.00,BKN,BKN,0.02,WeatherDisplay:10.37,2013-05-26 01:29:00,
2013-05-25 21:34:00,42.8,42.8,0.00,West,263,9.2,9.2,100,0.00,BKN,BKN,0.02,WeatherDisplay:10.37,2013-05-26 01:34:00,
2013-05-25 21:39:00,42.8,42.8,0.00,West,260,10.4,10.4,100,0.00,BKN,BKN,0.02,WeatherDisplay:10.37,2013-05-26 01:39:00,
2013-05-25 21:44:00,42.7,42.7,0.00,WSW,244,8.1,8.1,100,0.00,BKN,BKN,0.02,WeatherDisplay:10.37,2013-05-26 01:44:00,
2013-05-25 21:49:00,42.7,42.7,0.00,WNW,292,9.2,9.2,100,0.00,BKN,BKN,0.02,WeatherDisplay:10.37,2013-05-26 01:49:00,
2013-05-25 21:55:00,42.7,42.7,0.00,WSW,240,8.3,8.3,100,0.00,BKN,BKN,0.02,WeatherDisplay:10.37,2013-05-26 01:55:00,
2013-05-25 22:00:00,42.8,42.8,0.00,West,279,5.0,12.0,100,0.00,BKN,BKN,0.02,WeatherDisplay:10.37,2013-05-26 02:00:00,
2013-05-25 22:05:00,42.7,42.7,0.00,WNW,284,9.2,9.2,100,0.00,BKN,BKN,0.02,WeatherDisplay:10.37,2013-05-26 02:05:00,
2013-05-25 22:11:00,42.6,42.6,0.00,West,267,9.2,9.2,100,0.00,BKN,BKN,0.02,WeatherDisplay:10.37,2013-05-26 02:11:00,
2013-05-25 22:16:00,42.5,42.5,0.00,NW,320,10.4,10.4,100,0.00,BKN,BKN,0.02,WeatherDisplay:10.37,2013-05-26 02:16:00,
2013-05-25 22:21:00,42.6,42.6,0.00,WSW,254,8.1,8.1,100,0.00,BKN,BKN,0.02,WeatherDisplay:10.37,2013-05-26 02:21:00,
2013-05-25 22:26:00,42.6,42.6,0.00,WSW,247,6.9,6.9,100,0.00,BKN,BKN,0.02,WeatherDisplay:10.37,2013-05-26 02:26:00,
2013-05-25 22:31:00,42.5,42.5,0.00,West,260,10.4,10.4,100,0.00,BKN,BKN,0.02,WeatherDisplay:10.37,2013-05-26 02:31:00,
2013-05-25 22:36:00,42.5,42.5,0.00,West,268,8.1,8.1,100,0.00,BKN,BKN,0.02,WeatherDisplay:10.37,2013-05-26 02:36:00,
2013-05-25 22:42:00,42.5,42.5,0.00,WSW,251,11.5,11.5,100,0.00,BKN,BKN,0.02,WeatherDisplay:10.37,2013-05-26 02:42:00,
2013-05-25 22:47:00,42.5,42.5,0.00,SW,233,10.8,10.8,100,0.00,BKN,BKN,0.02,WeatherDisplay:10.37,2013-05-26 02:47:00,
2013-05-25 22:52:00,42.5,42.5,0.00,WSW,258,12.7,12.7,100,0.00,BKN,BKN,0.02,WeatherDisplay:10.37,2013-05-26 02:52:00,
2013-05-25 22:57:00,42.4,42.4,0.00,NW,320,8.1,8.1,100,0.00,BKN,BKN,0.02,WeatherDisplay:10.37,2013-05-26 02:57:00,
2013-05-25 23:03:00,42.4,42.4,0.00,West,281,10.4,10.4,100,0.00,BKN,BKN,0.02,WeatherDisplay:10.37,2013-05-26 03:03:00,
2013-05-25 23:08:00,42.4,42.4,0.00,WNW,291,8.1,8.1,100,0.00,BKN,BKN,0.02,WeatherDisplay:10.37,2013-05-26 03:08:00,
2013-05-25 23:13:00,42.3,42.3,0.00,West,268,9.2,9.2,100,0.00,BKN,BKN,0.02,WeatherDisplay:10.37,2013-05-26 03:13:00,
2013-05-25 23:18:00,42.3,42.3,0.00,WNW,291,12.7,12.7,100,0.00,BKN,BKN,0.02,WeatherDisplay:10.37,2013-05-26 03:18:00,
2013-05-25 23:24:00,42.3,42.3,0.00,WSW,246,8.3,8.3,100,0.00,BKN,BKN,0.02,WeatherDisplay:10.37,2013-05-26 03:24:00,
2013-05-25 23:29:00,42.3,42.3,0.00,West,268,9.2,9.2,100,0.00,BKN,BKN,0.02,WeatherDisplay:10.37,2013-05-26 03:29:00,
2013-05-25 23:34:00,42.2,42.2,0.00,WNW,284,12.7,12.7,100,0.00,BKN,BKN,0.02,WeatherDisplay:10.37,2013-05-26 03:34:00,
2013-05-25 23:39:00,42.2,42.2,0.00,WNW,292,5.8,5.8,100,0.00,BKN,BKN,0.02,WeatherDisplay:10.37,2013-05-26 03:39:00,
2013-05-25 23:44:00,42.3,42.3,0.00,West,261,10.4,10.4,100,0.00,BKN,BKN,0.02,WeatherDisplay:10.37,2013-05-26 03:44:00,
2013-05-25 23:49:00,42.3,42.3,0.00,WSW,256,5.8,5.8,100,0.00,BKN,BKN,0.02,WeatherDisplay:10.37,2013-05-26 03:49:00,
2013-05-25 23:54:00,42.4,42.4,0.00,WSW,246,8.1,8.1,100,0.00,BKN,BKN,0.02,WeatherDisplay:10.37,2013-05-26 03:54:00,
2013-05-25 23:59:00,42.4,42.4,0.00,NW,319,6.9,6.9,100,0.00,BKN,BKN,0.02,WeatherDisplay:10.37,2013-05-26 03:59:00,